Terug naar catalogus

SL-8 DEB

ActiefVLEO
NORAD 6065·DEBRIS·🇷🇺 Russia

Gelanceerd Jun 23, 1972 vanaf Plesetsk Cosmodrome

Loading…

Volgende Passages (komende 24 uur)

TLE

VersSource: Space-Track

Epoch: Sep 14, 2026, 07:17 UTC

1 06065U 72043D   26257.30385550  .00006814  00000-0  49075-3 0  9991
2 06065  74.0586   6.3378 0007673  34.3342 325.8342 15.04346642871253

Volg SL-8 DEB in realtime met AllMySat

Download on the App Store